2019-089B (44853 NORAD) Tracking and Keplerian Element Data

This shows tracking and keplerian element data for the satellite.

Feedback or suggestion? Click here.




ElementValue
Catalog44853
Name2019-089B
Epoch Orbit1702
Epoch Day93.93894566
Epoch Year2020
RAAN184.3253
Inclination36.9665
Eccentricity0.0004959
Argument of Perigee197.8629
Mean Anonmoly162.1915
Mean Motion14.99307754
Decay Rate7.12E-06
L11 44853U 19089B 20093.93894566 .00000712 00000-0 63590-4 0 9992
L22 44853 36.9665 184.3253 0004959 197.8629 162.1915 14.99307754 17020

Live tracking and technical data element details for 2019-089B (NORAD 44853). 2019-089B can be tracked NOW for your location showing map with azimuth and elevation plus other details from your city location.

Track the satellite on the map from your city or location and see movement details for azimuth, elevation, latitude, longitude, range, height, and movement on the map or in text.







IsCatalogInMostPopularTable: catalog: 44853, numindb: 41
Update: records affected: 1



GetName: 44853 2019-089B

Hit Count: updated at: Sun, 05 Apr 2020 20:46:29 GMT